sat.trackr.live / text

‹ back to catalog

TANSAT

NORAD 41898 · 2016-081A

PAYLOAD ACTIVE UNKNOWN

§ Identity

Operator
Country
PRC
Launch date
2016-12-21
Launch site
JSC
Launch vehicle
Mass (kg)
RCS (m²)
1.42

External: N2YO · Heavens-Above · Gunter

§ Orbital elements

Epoch: 2026-09-20T05:41:20.517792Z

Period
98.63 min
Inclination
98.5428°
Eccentricity
0.0021080
Mean motion
14.60005586 rev/d
Perigee alt
678.2 km
Apogee alt
708.1 km
Semi-major
7,071.3 km
B*
4.1463e-5
RAAN
266.3331°
Arg perigee
18.9014°
Mean anomaly
341.2963°
Rev number
51,849

§ Raw data

TANSAT1 41898U 16081A   26263.23704303  .00000149  00000+0  41463-4 0  99922 41898  98.5428 266.3331 0021080  18.9014 341.2963 14.60005586518496

JSON: /api/v1/satellites/41898 · /tle

For live sub-satellite position, see the globe view (requires WebGL).

§ Visibility from observer

Set your observer location to see the next 7 days of passes ≥ 10°. The values pass through the URL so the page stays shareable.

No JS? Fill the form by hand. The geolocation button needs JavaScript.

§ Radio — SatNOGS DB

ModeDescriptionDownlinkUplink
FM Mode S 2.218 GHz

1 transmitter · refreshed weekly from db.satnogs.org